M2 PATHFINDER

Last updated on Sun Dec 14 2025 00:03:50 GMT+0000 (Coordinated Universal Time)

1 45727U 20037E 25347.04666349 .00004472 00000+0 33193-3 0 9994 2 45727 97.8139 171.2834 0013639 65.3322 294.9322 15.03506863297515
UTC large
Height (km)
Speed (km/s)
/
Latitude / Longitude
Inclination (degrees)
Orbital Period (minutes)
Azimuth
Elevation
Range (km)
Doppler Factor

Next 0 passes for location: London (51.5072 / 0.1276)

Sorry there are no passes over London.